Temp_Advection
nan nan nan nan nan nan nan nan nan nan nan nan nan nan nan nan nan nan nan nan nan nan nan nan nan nan nan nan nan nan nan nan nan nan nan nan nan nan nan nan nan nan nan nan
nan -0 -1 -0 0 -0 -0 0 0 -0 -0 -0 0 -0 -0 -0 -0 0 0 -0 -0 0 0 0 1 0 0 0 0 0 0 0 0 -0 -0 -0 -0 1 0 0 0 -0 -0 nan
nan -0 -0 -0 0 -0 0 -0 -0 0 -0 -0 -0 -0 -0 -0 -0 -1 -0 -0 -0 -0 -0 0 1 1 1 0 0 0 1 1 0 1 1 1 1 0 -0 -1 -1 -0 -0 nan
nan -0 0 -0 0 0 0 0 -0 -0 -0 -0 -0 0 0 -0 -1 -0 1 0 -0 -0 -0 -0 1 1 0 0 0 1 1 1 1 1 1 -0 -0 -1 -1 -0 0 0 0 nan
nan 0 0 -0 -0 0 0 -0 0 0 0 -0 -0 0 -0 -0 0 0 0 0 -0 -0 -1 -1 -0 -0 0 0 1 1 1 1 1 1 0 0 0 -0 0 0 0 -0 -0 nan
nan 0 0 0 -0 0 0 -0 -0 -0 -0 -0 -0 -0 -0 -0 0 0 0 0 -0 -1 -1 -1 -1 -0 0 1 1 1 1 1 1 1 1 0 0 0 0 -0 -0 -1 -0 nan
nan 0 0 -0 -0 -0 -0 -0 -0 0 0 -0 -0 -0 -0 -0 0 -0 0 1 -1 -1 -1 -1 -1 -1 -0 -0 1 1 1 1 1 1 1 0 0 0 -0 -0 -0 -0 -1 nan
nan -0 0 0 0 0 0 -0 -0 -0 -0 -0 -0 -0 -0 -0 0 -0 0 -0 -1 -1 -1 -1 -1 -1 -1 -0 -0 1 1 1 1 1 1 1 1 0 -0 -0 -0 -0 -1 nan
nan -0 -0 -0 -0 -0 0 0 -0 0 0 0 0 0 -0 -0 -1 -0 -0 -0 -1 -1 -1 -1 -1 -1 -1 -1 -1 -0 0 0 1 1 0 1 1 0 -0 -0 0 -0 -1 nan
nan -0 -0 -0 -0 -0 0 0 -0 -0 -0 -0 0 0 0 0 -0 -0 -0 0 -0 -1 -1 -1 -1 -1 -1 -1 -1 -1 -0 -0 -0 0 1 1 0 0 0 -0 -0 -0 -0 nan
nan 0 -1 -0 0 0 -0 -0 0 -0 0 0 -0 -0 -0 -0 -0 -0 0 0 -1 -1 -1 -1 -1 -1 -1 -1 -1 -1 -1 -1 -0 -0 -0 0 0 0 0 -0 -0 -0 -0 nan
nan -0 -0 -0 -0 0 0 0 -0 -0 -0 0 0 -0 -0 0 0 0 -0 -0 -0 -1 -1 -1 -1 -1 -1 -1 -0 -1 -1 -0 -0 -0 -0 -0 -0 0 0 0 -0 -0 0 nan
nan -0 -0 -0 -0 -0 -0 -0 -0 0 -0 -0 -0 -0 -0 -0 -0 -0 -0 -0 -1 -1 -1 -1 -0 -0 -0 -0 -0 -0 -0 -0 -0 -0 -0 -0 -0 -0 -0 0 0 0 -0 nan
nan 0 0 0 0 -0 -0 -0 -0 -0 -0 -0 -0 -0 -1 -0 -0 -0 -0 -0 -0 -1 -1 -0 -0 -0 -0 -0 -0 -0 -0 -0 -0 -0 -1 -1 -0 -0 -0 -0 -0 0 0 nan
nan -0 -0 -0 -0 -0 -0 -0 -0 0 0 -0 -0 -0 -1 -0 0 -0 -1 -1 -1 -1 -1 -1 -1 -0 -1 -1 -1 -1 -1 -1 -0 -0 -0 -1 -1 -0 -0 -0 -0 -0 -0 nan
nan -0 -0 -0 -0 -0 -0 -0 -0 0 0 -0 0 0 -0 -0 -0 -0 -0 -0 -1 -0 -1 -1 -0 -0 -1 -1 -1 -1 -1 -1 -1 -0 -0 -1 -1 -0 -0 -0 -0 -0 0 nan
nan -0 -0 -0 -0 -0 -0 -0 -0 -1 -1 -0 -0 -0 -0 -0 -0 -0 -0 -0 -0 -1 -0 -0 -0 -1 -1 -1 -0 -1 -1 -1 -1 -1 -1 -1 -2 -2 -1 -0 -0 -0 -0 nan
nan -0 -0 -0 -0 0 0 0 -0 -0 -0 -0 -0 -0 -0 -0 -0 -0 -0 -0 -0 -0 -0 -1 -1 -1 -1 -1 -1 -1 -1 -1 -1 -1 -1 -1 -2 -2 -2 -1 -1 -0 -0 nan
nan -0 0 -0 -0 -0 -0 -0 -0 0 -0 -0 -0 -0 -0 -0 -1 -1 -0 -1 -0 -0 -1 -1 -1 -1 -1 -1 -1 -1 -1 -1 -1 -1 -1 -1 -1 -2 -2 -2 -2 -1 -1 nan
nan 0 -0 0 -0 -0 -0 -0 0 0 -0 -0 0 0 -0 -0 -0 -0 -1 -1 -1 -1 -0 -1 -1 -0 -0 -1 -1 -1 -1 -1 -1 -1 -1 -1 -1 -1 -2 -2 -2 -2 -1 nan
nan 0 0 0 0 -0 0 0 -1 0 0 -0 -0 -0 -0 -0 -0 0 -0 -0 -0 -0 -0 -0 -1 -0 -0 -0 -0 -0 -1 -1 -1 -1 -1 -1 -1 -1 -1 -2 -2 -2 -2 nan
nan -0 -0 -0 -0 -0 0 -0 -0 -0 0 0 -0 -0 -0 0 -0 -0 -0 -0 -0 -0 -0 -0 -0 -0 -0 -0 -0 -0 -0 -0 -0 -0 -1 -1 -1 -1 -1 -1 -2 -1 -1 nan
nan -0 0 0 -0 -1 -0 -0 -0 0 -0 -0 -0 -0 -0 -1 -1 -1 -1 -1 -1 -1 -1 -1 -1 -1 -1 -1 -1 -1 -0 -0 -0 -0 -0 -0 -1 -1 -0 -0 -1 -2 -1 nan
nan 0 0 -0 -0 -1 -1 -0 -0 -0 -0 -0 -0 -1 -1 -1 -1 -2 -2 -2 -2 -2 -2 -2 -1 -1 -1 -1 -1 -1 -1 -1 -1 -1 -1 -0 -0 -1 -1 -1 -0 -1 -1 nan
nan -0 0 -0 -1 -1 -0 -0 -0 -0 -0 -0 -0 -0 -1 -1 -2 -2 -2 -2 -2 -2 -2 -2 -2 -2 -3 -3 -2 -1 -1 -2 -1 -1 -1 -1 -1 -1 -1 -1 -1 -1 -1 nan
nan nan nan nan nan nan nan nan nan nan nan nan nan nan nan nan nan nan nan nan nan nan nan nan nan nan nan nan nan nan nan nan nan nan nan nan nan nan nan nan nan nan nan nan
Wind_Speed
6 3 4 6 4 4 1 3 5 8 1 3 5 8 13 19 13 13 15 22 25 19 17 32 33 33 32 32 33 34 33 31 27 29 31 32 31 27 25 23 21 20 18 17
3 5 7 4 1 2 2 4 7 7 5 5 6 9 7 10 9 16 15 5 21 21 20 17 36 34 34 33 34 34 35 33 30 29 30 31 28 25 23 21 21 21 21 19
5 5 5 0 3 3 3 3 2 2 6 5 3 7 8 6 24 31 30 26 26 16 10 11 35 34 34 33 33 34 35 35 33 30 27 28 26 26 26 27 25 24 23 22
4 2 2 1 3 2 4 1 2 3 5 3 5 2 6 4 9 10 27 24 24 25 19 12 17 33 35 34 34 34 35 35 35 32 30 31 32 32 30 26 24 23 24 25
7 3 1 2 3 2 4 3 3 1 1 3 4 5 3 4 6 7 14 25 22 24 22 23 15 4 34 35 33 32 33 35 35 34 33 32 33 31 28 26 25 24 24 25
8 2 3 5 2 2 3 4 4 2 3 2 6 5 4 2 4 3 10 25 27 25 27 28 27 14 5 34 35 31 31 33 34 35 35 34 33 32 30 30 29 28 27 26
6 2 1 1 3 2 3 4 3 3 3 5 2 4 6 5 6 8 11 27 28 28 31 33 28 30 16 2 31 33 31 31 31 32 34 34 34 33 34 32 32 30 29 30
2 3 2 1 1 2 3 5 4 2 2 4 3 4 4 6 17 20 26 27 26 28 28 31 31 29 24 21 3 28 31 30 29 30 31 32 34 36 37 35 34 33 32 31
6 3 2 2 2 2 3 0 3 1 2 2 2 4 6 3 9 15 21 27 27 27 27 30 27 26 29 22 17 5 12 23 26 28 30 32 33 35 37 37 36 36 34 33
4 4 3 2 2 2 3 2 3 3 1 3 2 4 4 4 8 5 12 23 24 24 23 26 27 26 25 24 22 15 6 11 16 22 28 31 32 34 35 36 37 39 38 37
5 1 6 3 2 4 1 2 1 2 4 3 1 3 7 12 7 7 14 23 24 25 25 25 25 25 24 22 26 24 16 14 8 19 21 21 28 33 34 34 34 35 36 38
3 1 4 6 1 1 2 1 3 4 5 1 4 2 7 5 10 20 19 21 21 23 24 26 26 26 27 27 27 28 29 20 16 14 13 22 23 23 27 31 33 32 34 35
4 2 3 4 5 6 5 3 4 0 2 2 3 4 3 12 16 18 19 18 19 20 22 24 25 26 28 29 27 28 31 27 22 20 16 14 16 24 25 28 30 31 30 31
1 3 5 5 2 5 5 5 3 3 1 2 4 6 9 10 9 17 19 13 14 18 21 22 24 26 28 29 30 28 29 29 23 23 24 19 14 14 17 23 26 30 30 31
4 3 4 6 7 4 5 6 7 5 6 4 3 6 7 6 6 17 23 20 18 22 24 23 24 27 30 32 31 30 30 29 27 22 22 25 24 18 14 15 19 23 27 31
7 4 6 5 9 10 11 11 12 11 8 9 6 2 10 14 17 20 21 24 23 23 23 25 26 28 31 32 33 33 32 31 28 25 22 26 27 24 21 16 18 20 21 25
3 1 4 5 6 7 2 11 9 14 12 3 6 3 9 9 15 22 13 25 25 23 20 22 25 30 34 35 33 32 33 32 30 29 25 25 30 28 25 21 19 18 20 23
4 3 2 4 5 2 5 12 12 15 13 11 8 9 13 15 18 19 13 27 25 20 25 29 32 33 33 31 33 31 33 32 32 31 29 28 32 33 30 26 23 21 20 21
16 4 2 2 1 3 9 9 7 4 6 10 10 12 15 20 13 10 18 26 24 28 32 33 32 28 31 34 31 32 31 31 34 36 32 33 35 36 35 32 29 26 25 22
5 6 5 1 0 2 2 10 28 8 4 14 18 15 16 19 7 4 27 28 30 28 26 30 35 33 29 31 33 30 31 36 35 31 33 37 36 34 34 34 34 32 28 27
4 2 5 6 4 1 3 20 19 1 6 23 16 17 18 8 14 27 30 30 30 33 33 30 33 31 33 29 31 32 35 32 32 32 37 35 35 36 34 34 33 33 31 28
3 2 3 3 2 5 18 8 6 9 22 21 17 19 19 21 27 30 31 30 32 33 33 32 32 31 31 33 32 34 34 32 33 35 37 33 35 36 36 34 33 32 32 34
2 2 2 5 4 20 19 12 21 18 11 20 23 24 26 28 28 28 30 32 33 34 36 35 35 36 36 33 34 33 34 38 36 35 35 35 36 34 34 36 35 34 33 33
5 10 2 5 4 14 25 27 15 21 20 19 19 26 26 24 27 30 33 33 32 28 27 26 24 26 29 25 23 30 31 32 34 35 36 36 36 37 35 35 36 37 36 36
8 7 5 6 14 14 18 18 23 20 21 25 26 23 23 26 29 30 32 35 32 31 31 30 35 35 39 41 40 36 34 33 31 30 32 36 37 36 37 37 39 39 39 39
8 6 4 6 17 13 17 22 13 17 20 25 30 36 38 27 25 28 32 33 33 34 35 35 34 36 37 37 46 45 46 45 42 39 36 33 31 32 35 39 39 42 45 45
Wind_Direction
214 73 249 244 206 198 306 329 303 284 220 277 253 281 287 297 296 304 271 254 228 229 231 223 217 215 215 217 221 226 228 234 233 225 222 222 227 228 230 231 234 233 231 229
333 258 235 237 243 39 341 301 288 291 332 16 299 310 326 15 15 35 27 223 232 226 240 242 213 210 212 215 219 224 229 235 237 235 231 230 233 235 239 238 235 234 235 234
186 252 158 127 321 319 281 235 281 276 331 331 22 19 10 350 43 47 47 55 55 60 42 235 203 209 212 214 219 224 230 234 239 242 237 234 234 237 237 236 236 235 237 237
255 181 140 4 284 231 278 357 18 7 48 280 75 207 340 344 32 29 40 42 43 42 45 56 213 205 213 221 225 229 232 234 238 244 241 237 234 234 239 242 244 242 240 240
258 176 219 283 266 0 239 327 273 235 311 14 328 95 244 17 38 19 29 39 45 39 40 37 28 239 219 223 228 232 234 233 237 240 245 245 243 245 249 251 250 247 245 243
232 181 185 208 280 224 321 331 341 104 103 358 239 124 252 188 137 41 42 52 47 43 37 36 37 29 217 225 227 233 233 236 238 241 247 248 249 250 248 248 248 250 250 247
327 221 76 77 339 9 42 44 359 27 19 224 207 58 216 179 131 122 83 60 49 46 43 38 32 33 32 243 226 231 235 238 242 245 249 252 253 253 254 255 255 254 253 250
319 328 135 154 196 195 234 142 148 227 191 266 8 168 211 160 98 86 78 69 56 48 44 41 40 38 35 38 7 231 236 241 246 249 253 256 259 258 258 259 259 259 257 257
2 322 323 45 359 97 325 6 188 195 296 63 213 31 18 142 77 70 71 67 56 49 47 43 39 36 41 37 33 338 258 250 249 253 257 258 261 262 262 263 262 261 260 259
297 310 259 285 359 288 187 252 42 11 277 282 291 179 203 194 87 69 64 68 59 51 47 44 39 35 37 37 40 36 319 277 280 269 264 262 264 267 268 267 266 264 264 262
16 59 294 12 211 218 44 312 216 156 154 175 310 13 341 104 122 94 71 68 60 51 44 42 37 33 31 34 34 29 30 37 331 272 276 276 267 265 268 270 270 268 266 262
50 276 271 240 258 187 176 14 117 119 303 328 143 34 332 81 90 82 74 67 60 53 47 42 37 33 30 31 28 25 23 23 12 3 322 271 281 283 275 274 276 276 273 270
339 332 322 329 347 3 53 4 49 261 87 252 117 166 358 54 58 68 69 66 61 52 43 37 31 25 22 22 23 21 18 19 25 21 4 349 297 276 286 288 286 284 283 278
202 253 189 210 168 332 313 320 3 97 104 286 238 130 32 39 44 33 29 43 55 47 39 29 18 14 12 11 10 11 10 14 15 19 12 6 341 323 294 287 293 288 286 284
47 277 296 301 299 296 259 266 281 257 230 200 274 351 67 37 39 14 13 13 40 35 31 27 15 4 1 0 2 1 360 2 5 5 360 352 5 355 312 300 290 292 287 280
359 293 330 297 285 280 277 271 262 242 255 264 229 150 0 20 27 12 37 33 26 19 14 16 5 353 352 350 348 348 348 350 350 351 353 342 341 351 357 344 302 291 281 282
292 301 352 269 350 306 17 339 316 78 43 41 61 344 346 6 16 350 22 16 10 6 18 4 347 340 340 338 338 339 338 339 340 340 341 335 328 335 342 342 345 342 306 286
251 330 324 278 349 253 119 25 63 87 58 46 38 17 18 1 355 344 12 0 356 355 343 337 333 330 328 328 327 328 327 329 331 332 332 326 324 328 330 330 330 330 332 323
207 179 276 243 263 252 19 11 342 322 46 28 20 349 334 333 332 350 342 340 337 332 327 324 325 328 322 320 323 323 323 324 320 322 326 324 324 323 323 323 324 319 319 317
172 192 162 80 337 278 37 348 340 321 165 359 339 328 326 331 346 299 341 335 328 326 325 321 318 320 322 321 320 321 316 315 317 323 319 316 318 320 319 319 318 318 316 308
355 110 232 251 234 229 5 359 352 255 333 329 333 349 353 338 318 318 320 317 314 314 318 320 317 313 313 320 319 312 313 313 317 314 311 312 313 316 316 316 316 314 314 309
10 354 335 357 297 246 354 4 42 290 308 326 350 343 328 319 317 319 320 320 319 318 318 318 316 312 313 314 313 309 309 313 312 309 311 312 311 312 313 314 314 313 312 308
276 137 229 191 242 316 329 326 316 324 354 338 333 334 334 330 325 322 317 315 315 314 313 313 309 307 307 307 307 306 309 309 310 309 308 308 310 309 309 310 311 312 314 313
315 315 282 1 296 303 310 314 340 341 341 344 344 335 332 333 328 324 320 321 321 320 319 321 316 314 315 317 311 305 310 314 309 306 306 307 308 309 306 305 305 307 309 314
248 314 255 270 285 299 303 317 328 331 333 337 331 331 336 333 328 324 319 317 318 318 317 316 312 307 300 298 299 302 307 307 306 304 303 302 303 301 301 299 298 298 299 307
207 221 185 262 278 272 285 310 340 338 337 325 323 321 323 335 333 326 322 321 320 321 319 315 309 307 308 309 300 301 299 298 294 295 297 300 301 300 300 299 296 291 296 302
Height
1516 1523 1527 1521 1516 1515 1514 1518 1523 1510 1503 1504 1505 1504 1494 1487 1485 1483 1480 1479 1482 1485 1488 1490 1493 1496 1500 1502 1505 1508 1511 1514 1518 1520 1522 1525 1525 1529 1532 1534 1536 1538 1540 1542
1521 1525 1514 1511 1511 1511 1513 1518 1521 1509 1502 1503 1502 1504 1495 1490 1489 1485 1477 1477 1480 1483 1485 1486 1489 1492 1495 1497 1500 1504 1507 1510 1513 1516 1518 1520 1523 1526 1528 1531 1533 1535 1536 1538
1523 1515 1509 1510 1512 1515 1514 1517 1515 1515 1509 1502 1504 1511 1506 1497 1490 1486 1485 1484 1483 1484 1483 1482 1486 1487 1491 1495 1497 1500 1503 1506 1509 1512 1516 1519 1522 1523 1524 1525 1527 1530 1533 1535
1514 1509 1510 1511 1513 1512 1519 1510 1510 1512 1520 1530 1509 1536 1514 1504 1499 1494 1491 1488 1488 1487 1486 1485 1487 1488 1489 1491 1494 1496 1499 1503 1506 1509 1511 1513 1514 1516 1518 1521 1524 1527 1529 1531
1518 1510 1511 1513 1511 1508 1513 1508 1510 1511 1518 1522 1515 1529 1513 1506 1507 1503 1496 1494 1492 1490 1489 1488 1487 1487 1489 1491 1492 1494 1496 1499 1502 1506 1507 1510 1511 1513 1516 1519 1521 1523 1525 1527
1511 1507 1508 1509 1507 1507 1506 1508 1511 1513 1523 1537 1515 1518 1520 1512 1506 1504 1501 1498 1497 1494 1492 1490 1490 1486 1486 1488 1491 1493 1495 1497 1499 1502 1504 1506 1507 1510 1512 1514 1515 1518 1520 1522
1511 1508 1507 1508 1510 1507 1510 1520 1535 1531 1540 1533 1502 1516 1517 1507 1504 1503 1503 1502 1502 1500 1496 1493 1489 1488 1487 1486 1489 1492 1494 1496 1497 1499 1501 1502 1504 1506 1507 1510 1511 1513 1515 1515
1527 1522 1510 1508 1510 1513 1514 1519 1535 1530 1536 1525 1503 1522 1515 1502 1504 1505 1504 1504 1504 1503 1501 1498 1496 1492 1490 1489 1489 1492 1494 1495 1497 1497 1498 1499 1501 1502 1503 1505 1507 1508 1510 1511
1533 1519 1509 1509 1508 1510 1513 1521 1513 1521 1519 1529 1518 1509 1504 1501 1508 1508 1507 1505 1506 1506 1505 1503 1500 1497 1495 1491 1491 1492 1494 1495 1496 1496 1496 1496 1497 1497 1498 1500 1502 1502 1504 1506
1529 1533 1512 1511 1509 1509 1511 1512 1523 1528 1529 1525 1518 1516 1521 1510 1515 1513 1510 1509 1510 1509 1507 1506 1504 1502 1500 1497 1495 1493 1492 1494 1494 1494 1493 1492 1492 1493 1493 1494 1495 1495 1497 1499
1531 1530 1523 1512 1514 1514 1517 1518 1515 1521 1528 1533 1536 1530 1513 1511 1515 1515 1513 1513 1513 1511 1510 1508 1507 1505 1503 1500 1497 1495 1493 1491 1489 1488 1488 1487 1487 1487 1487 1488 1488 1489 1490 1492
1534 1535 1535 1520 1511 1507 1507 1511 1515 1533 1528 1529 1532 1542 1525 1520 1516 1514 1517 1517 1516 1514 1513 1510 1509 1507 1505 1502 1500 1497 1494 1491 1488 1486 1483 1482 1482 1481 1481 1481 1481 1482 1482 1484
1536 1537 1540 1523 1520 1512 1515 1513 1516 1518 1524 1527 1535 1539 1528 1523 1519 1520 1519 1519 1518 1516 1513 1511 1509 1507 1506 1504 1501 1498 1495 1492 1488 1484 1481 1479 1477 1477 1476 1475 1475 1475 1475 1476
1535 1536 1534 1538 1530 1527 1523 1518 1517 1522 1534 1531 1527 1524 1531 1526 1526 1524 1522 1521 1519 1516 1515 1513 1511 1508 1506 1504 1501 1498 1495 1492 1489 1485 1482 1479 1476 1474 1471 1471 1470 1469 1468 1468
1540 1541 1533 1531 1528 1526 1524 1522 1518 1520 1521 1529 1520 1521 1533 1532 1530 1527 1524 1520 1519 1518 1516 1513 1511 1508 1506 1503 1501 1498 1494 1491 1488 1485 1482 1479 1476 1472 1468 1466 1464 1463 1462 1461
1542 1543 1538 1534 1526 1522 1521 1517 1514 1514 1515 1515 1517 1524 1532 1532 1530 1526 1525 1523 1520 1518 1516 1513 1511 1508 1505 1503 1500 1496 1493 1489 1486 1483 1479 1477 1473 1469 1466 1462 1459 1457 1455 1454
1549 1546 1546 1543 1532 1522 1524 1529 1517 1524 1526 1525 1534 1536 1532 1530 1528 1525 1524 1522 1520 1518 1516 1515 1512 1508 1505 1501 1498 1494 1490 1487 1484 1480 1477 1473 1469 1465 1461 1458 1455 1452 1449 1447
1547 1547 1546 1548 1536 1535 1540 1532 1527 1527 1532 1533 1534 1534 1534 1533 1530 1527 1524 1522 1520 1518 1515 1513 1510 1507 1503 1499 1495 1491 1487 1483 1480 1476 1472 1469 1464 1460 1457 1454 1451 1447 1444 1441
1539 1546 1551 1548 1547 1533 1534 1536 1538 1533 1538 1536 1537 1534 1531 1528 1526 1525 1523 1522 1520 1517 1513 1509 1506 1503 1499 1495 1491 1487 1483 1479 1475 1472 1468 1464 1460 1456 1452 1448 1445 1441 1438 1435
1534 1538 1544 1546 1547 1538 1543 1538 1529 1524 1536 1535 1532 1530 1528 1525 1526 1524 1521 1518 1515 1513 1509 1505 1501 1497 1494 1491 1487 1484 1480 1475 1471 1467 1463 1459 1455 1451 1446 1442 1438 1435 1432 1428
1543 1542 1545 1540 1545 1538 1539 1534 1528 1529 1539 1532 1532 1530 1528 1527 1526 1521 1517 1513 1510 1507 1503 1499 1495 1491 1488 1485 1482 1478 1474 1470 1467 1463 1459 1454 1449 1445 1441 1436 1433 1428 1424 1420
1548 1553 1552 1548 1543 1537 1536 1535 1542 1539 1532 1531 1529 1527 1525 1523 1518 1514 1510 1507 1503 1499 1495 1493 1488 1484 1482 1479 1476 1471 1467 1464 1460 1456 1452 1447 1443 1438 1434 1430 1425 1422 1418 1413
1552 1548 1550 1549 1546 1532 1531 1535 1534 1532 1531 1529 1525 1523 1519 1516 1513 1510 1506 1502 1497 1493 1489 1485 1481 1476 1473 1471 1468 1463 1460 1457 1452 1448 1444 1440 1436 1431 1426 1422 1418 1414 1411 1407
1547 1543 1546 1544 1537 1534 1532 1527 1528 1528 1526 1524 1522 1518 1515 1511 1507 1502 1499 1496 1492 1488 1483 1479 1473 1469 1465 1462 1460 1457 1452 1449 1444 1439 1435 1431 1427 1423 1419 1415 1411 1407 1404 1400
1548 1545 1539 1537 1532 1530 1526 1527 1525 1522 1520 1519 1517 1514 1511 1507 1502 1498 1492 1488 1484 1480 1476 1471 1467 1462 1457 1454 1450 1448 1444 1440 1435 1431 1427 1423 1419 1415 1411 1408 1404 1400 1396 1394
1538 1535 1538 1534 1528 1528 1525 1524 1523 1520 1518 1514 1510 1505 1503 1501 1497 1492 1486 1482 1476 1471 1467 1462 1459 1454 1449 1444 1439 1437 1433 1430 1426 1421 1417 1414 1410 1407 1403 1398 1393 1390 1387 1384